[ hide orbit diagram ]
For accurate long-term ephemerides, please instead use our Horizons system.This orbit viewer was implemented using two-body methods, and hence should not be used for determining accurate long-term trajectories (over several years or decades) or planetary encounter circumstances.
Orbital Elements at Epoch 2459000.5 (2020-May-31.0) TDB
Reference: JPL 25 (heliocentric ecliptic J2000)
Element | Value | Uncertainty (1-sigma) | Units |
e | .1216717741669328 | 5.5539e-08 | |
a | 2.972964070644943 | 1.6872e-08 | au |
q | 2.611238257635026 | 1.6777e-07 | au |
i | 9.59140385910481 | 5.3535e-06 | deg |
node | 228.060180454301 | 2.6948e-05 | deg |
peri | 112.921739865816 | 3.3398e-05 | deg |
M | 212.6281070534713 | 2.1664e-05 | deg |
tp | 2459766.969855193577 (2022-Jul-06.46985519) | 0.00011459 | TDB |
period | 1872.332249744554 5.13 | 1.5938e-05 4.364e-08 | d yr |
n | .1922735668571192 | 1.6367e-09 | deg/d |
Q | 3.33468988365486 | 1.8925e-08 | au |
|
| | Orbit Determination Parameters
Additional Information
|
[ show covariance matrix ]
Physical Parameter Table
Parameter |
Symbol |
Value |
Units |
Sigma |
Reference |
Notes |
absolute magnitude |
H |
13.3 |
|
n/a |
MPO435845 |
|
diameter |
diameter |
7.719 |
km |
0.050 |
urn:nasa:pds:neowise_diameters_albedos::2.0[mainbelt] (http://adsabs.harvard.edu/abs/2011ApJ...741...68M) |
|
geometric albedo |
albedo |
0.205 |
|
0.027 |
urn:nasa:pds:neowise_diameters_albedos::2.0[mainbelt] (http://adsabs.harvard.edu/abs/2011ApJ...741...68M) |
|
|
15550 Sydney | Discovered 2000 Mar. 31 by J. Broughton at Reedy Creek Observatory. |
Australia's largest city, Sydney is also the birthplace of the discoverer of this minor planet. Established by the British in 1788, Sydney was the first European settlement in Australasia and is famous for its magnificent opera house, harbor, sandy beaches and as host city of the 2000 Olympics. |
NOTE: some special characters may not display properly (any characters within {} are an attempt to place the proper accent above a character) |
Reference: 20010509/MPCPages.arc | Last Updated: 2009-05-11 |
|
|